• In Moldova, Republic
  • List of Countries
  • For 7 days
  • Water Temperature
  • Satellite Maps
  • Weather Map
  • Weather Widgets
  • user-avatar
    Login

    Hourly Weather Namibe

    Today, 21 October, Saturday

    Time Temperature Precipitation Wind Pressure Humidity
    00:00 +26°C° 0 mm 3 mps 759 mmHg 64%
    01:00 +25°C° 0 mm 2 mps 758 mmHg 63%
    02:00 +25°C° 0 mm 2 mps 758 mmHg 65%
    03:00 +25°C° 0 mm 2 mps 758 mmHg 66%
    04:00 +24°C° 0 mm 2 mps 758 mmHg 68%
    05:00 +25°C° 0 mm 2 mps 758 mmHg 67%
    06:00 +25°C° 0 mm 2 mps 759 mmHg 67%
    07:00 +25°C° 0 mm 2 mps 759 mmHg 67%
    08:00 +28°C° 0 mm 2 mps 759 mmHg 57%
    09:00 +30°C° 0 mm 2 mps 759 mmHg 48%
    10:00 +33°C° 0 mm 3 mps 759 mmHg 38%
    11:00 +34°C° 0 mm 4 mps 759 mmHg 37%
    12:00 +35°C° 0 mm 4 mps 758 mmHg 36%
    13:00 +36°C° 0 mm 5 mps 758 mmHg 35%
    14:00 +34°C° 0 mm 5 mps 757 mmHg 37%
    15:00 +33°C° 0 mm 6 mps 757 mmHg 40%
    16:00 +32°C° 0 mm 6 mps 757 mmHg 43%
    17:00 +29°C° 0 mm 5 mps 757 mmHg 47%
    18:00 +28°C° 0 mm 4 mps 758 mmHg 52%
    19:00 +26°C° 0 mm 4 mps 758 mmHg 57%
    20:00 +26°C° 0 mm 3 mps 759 mmHg 58%
    21:00 +26°C° 0 mm 3 mps 759 mmHg 60%
    22:00 +25°C° 0 mm 3 mps 760 mmHg 61%
    23:00 +25°C° 0 mm 3 mps 760 mmHg 64%

    Tomorrow, 22 October, Sunday

    Time Temperature Precipitation Wind Pressure Humidity
    00:00 +24°C° 0 mm 3 mps 759 mmHg 66%
    01:00 +24°C° 0 mm 3 mps 759 mmHg 68%
    02:00 +24°C° 0 mm 3 mps 759 mmHg 70%
    03:00 +23°C° 0 mm 2 mps 759 mmHg 73%
    04:00 +23°C° 0 mm 2 mps 758 mmHg 75%
    05:00 +23°C° 0 mm 2 mps 759 mmHg 73%
    06:00 +24°C° 0 mm 2 mps 759 mmHg 71%
    07:00 +24°C° 0 mm 2 mps 759 mmHg 69%
    08:00 +27°C° 0 mm 2 mps 759 mmHg 58%
    09:00 +29°C° 0 mm 3 mps 759 mmHg 46%
    10:00 +33°C° 0 mm 3 mps 759 mmHg 35%
    11:00 +34°C° 0 mm 4 mps 758 mmHg 34%
    12:00 +35°C° 0 mm 5 mps 758 mmHg 33%
    13:00 +36°C° 0 mm 6 mps 757 mmHg 32%
    14:00 +34°C° 0 mm 6 mps 756 mmHg 35%
    15:00 +33°C° 0 mm 6 mps 756 mmHg 37%
    16:00 +32°C° 0 mm 6 mps 756 mmHg 40%
    17:00 +30°C° 0 mm 5 mps 756 mmHg 44%
    18:00 +28°C° 0 mm 4 mps 757 mmHg 49%
    19:00 +27°C° 0 mm 3 mps 758 mmHg 54%
    20:00 +27°C° 0 mm 3 mps 758 mmHg 53%
    21:00 +27°C° 0 mm 3 mps 759 mmHg 53%
    22:00 +27°C° 0 mm 3 mps 759 mmHg 53%
    23:00 +27°C° 0 mm 3 mps 759 mmHg 54%

    Day after tomorrow, 23 October, Monday

    Time Temperature Precipitation Wind Pressure Humidity
    00:00 +26°C° 0 mm 3 mps 758 mmHg 56%
    01:00 +26°C° 0 mm 4 mps 757 mmHg 57%
    02:00 +26°C° 0 mm 3 mps 757 mmHg 58%
    03:00 +26°C° 0 mm 3 mps 757 mmHg 58%
    04:00 +25°C° 0 mm 2 mps 757 mmHg 59%
    05:00 +26°C° 0 mm 2 mps 757 mmHg 58%
    06:00 +26°C° 0 mm 2 mps 758 mmHg 57%
    07:00 +26°C° 0 mm 2 mps 758 mmHg 56%
    08:00 +29°C° 0 mm 2 mps 758 mmHg 48%
    09:00 +31°C° 0 mm 2 mps 758 mmHg 41%
    10:00 +35°C° 0 mm 2 mps 758 mmHg 33%
    11:00 +36°C° 0 mm 3 mps 757 mmHg 32%
    12:00 +37°C° 0 mm 4 mps 756 mmHg 31%
    13:00 +39°C° 0 mm 5 mps 755 mmHg 30%
    14:00 +37°C° 0 mm 5 mps 755 mmHg 33%
    15:00 +36°C° 0 mm 5 mps 755 mmHg 35%
    16:00 +35°C° 0 mm 5 mps 754 mmHg 37%
    17:00 +33°C° 0.1 mm 4 mps 755 mmHg 42%
    18:00 +30°C° 0.1 mm 4 mps 756 mmHg 46%
    19:00 +29°C° 0.1 mm 3 mps 757 mmHg 50%
    20:00 +29°C° 0.1 mm 3 mps 757 mmHg 50%
    21:00 +29°C° 0.1 mm 2 mps 757 mmHg 50%
    22:00 +29°C° 0.1 mm 2 mps 757 mmHg 50%
    23:00 +28°C° 0.2 mm 2 mps 757 mmHg 53%

    24 October, Tuesday

    Time Temperature Precipitation Wind Pressure Humidity
    00:00 +28°C° 0.2 mm 2 mps 756 mmHg 55%
    01:00 +27°C° 0.2 mm 2 mps 756 mmHg 58%
    02:00 +27°C° 0.1 mm 2 mps 756 mmHg 60%
    03:00 +27°C° 0.1 mm 2 mps 756 mmHg 63%
    04:00 +26°C° 0.1 mm 2 mps 756 mmHg 65%
    05:00 +27°C° 0 mm 2 mps 756 mmHg 66%
    06:00 +27°C° 0 mm 2 mps 757 mmHg 66%
    07:00 +27°C° 0 mm 2 mps 757 mmHg 67%
    08:00 +28°C° 0 mm 3 mps 757 mmHg 62%
    09:00 +30°C° 0 mm 4 mps 757 mmHg 58%
    10:00 +32°C° 0 mm 4 mps 757 mmHg 54%
    11:00 +33°C° 0.1 mm 5 mps 757 mmHg 52%
    12:00 +34°C° 0.1 mm 5 mps 756 mmHg 51%
    13:00 +34°C° 0.1 mm 5 mps 756 mmHg 50%
    14:00 +34°C° 0.5 mm 5 mps 756 mmHg 52%
    15:00 +33°C° 0.5 mm 5 mps 756 mmHg 53%
    16:00 +32°C° 0.5 mm 5 mps 755 mmHg 55%
    17:00 +30°C° 0.6 mm 4 mps 756 mmHg 61%
    18:00 +29°C° 0.6 mm 3 mps 757 mmHg 67%
    19:00 +28°C° 0.6 mm 2 mps 758 mmHg 73%
    20:00 +27°C° 0.1 mm 2 mps 758 mmHg 74%
    21:00 +27°C° 0.1 mm 2 mps 759 mmHg 75%
    22:00 +27°C° 0.1 mm 1 mps 759 mmHg 76%
    23:00 +27°C° 0.1 mm 1 mps 758 mmHg 75%

    25 October, Wednesday

    Time Temperature Precipitation Wind Pressure Humidity
    00:00 +27°C° 0.1 mm 1 mps 758 mmHg 75%
    01:00 +27°C° 0.1 mm 1 mps 758 mmHg 74%
    02:00 +25°C° 0 mm 0 mps 757 mmHg 74%
    03:00 +25°C° 0 mm 0 mps 757 mmHg 73%
    04:00 +25°C° 0 mm 0 mps 757 mmHg 73%
    05:00 +25°C° 0.6 mm 0 mps 757 mmHg 72%
    06:00 +28°C° 0.6 mm 1 mps 758 mmHg 71%
    07:00 +28°C° 0.6 mm 1 mps 758 mmHg 70%
    08:00 +29°C° 0.2 mm 1 mps 758 mmHg 65%
    09:00 +31°C° 0.2 mm 2 mps 758 mmHg 59%
    10:00 +32°C° 0.2 mm 2 mps 758 mmHg 54%
    11:00 +34°C° 0 mm 3 mps 758 mmHg 50%
    12:00 +36°C° 0 mm 4 mps 757 mmHg 47%
    13:00 +37°C° 0 mm 5 mps 756 mmHg 43%
    14:00 +35°C° 0 mm 5 mps 756 mmHg 47%
    15:00 +34°C° 0 mm 6 mps 756 mmHg 51%
    16:00 +33°C° 0 mm 6 mps 756 mmHg 55%
    17:00 +32°C° 0 mm 5 mps 756 mmHg 57%
    18:00 +30°C° 0 mm 5 mps 757 mmHg 60%
    19:00 +28°C° 0 mm 5 mps 757 mmHg 62%
    20:00 +28°C° 0 mm 4 mps 757 mmHg 61%
    21:00 +28°C° 0 mm 4 mps 758 mmHg 59%
    22:00 +28°C° 0 mm 3 mps 758 mmHg 58%
    23:00 +28°C° 0 mm 3 mps 758 mmHg 57%

    26 October, Thursday

    Time Temperature Precipitation Wind Pressure Humidity
    00:00 +28°C° 0 mm 3 mps 757 mmHg 56%
    01:00 +28°C° 0 mm 3 mps 757 mmHg 56%
    02:00 +28°C° 0 mm 3 mps 757 mmHg 56%
    03:00 +28°C° 0 mm 3 mps 757 mmHg 57%
    04:00 +28°C° 0 mm 3 mps 757 mmHg 57%
    05:00 +28°C° 0 mm 3 mps 757 mmHg 57%
    06:00 +28°C° 0 mm 3 mps 757 mmHg 57%
    07:00 +28°C° 0 mm 2 mps 758 mmHg 56%
    08:00 +30°C° 0 mm 2 mps 758 mmHg 51%
    09:00 +33°C° 0 mm 3 mps 758 mmHg 46%
    10:00 +34°C° 0 mm 3 mps 758 mmHg 41%
    11:00 +35°C° 0 mm 4 mps 757 mmHg 41%
    12:00 +35°C° 0 mm 5 mps 757 mmHg 40%
    13:00 +36°C° 0 mm 5 mps 756 mmHg 39%
    14:00 +35°C° 0 mm 5 mps 756 mmHg 41%
    15:00 +34°C° 0 mm 5 mps 756 mmHg 44%
    16:00 +32°C° 0 mm 5 mps 756 mmHg 46%
    17:00 +30°C° 0 mm 5 mps 756 mmHg 51%
    18:00 +29°C° 0 mm 4 mps 757 mmHg 56%
    19:00 +27°C° 0 mm 3 mps 757 mmHg 60%
    20:00 +27°C° 0 mm 3 mps 758 mmHg 61%
    21:00 +27°C° 0 mm 2 mps 758 mmHg 61%
    22:00 +27°C° 0 mm 1 mps 758 mmHg 62%
    23:00 +27°C° 0 mm 1 mps 758 mmHg 61%
    Show more